Location: Heisler
(52.6701°N, 112.2239°W)
Time: 04:06:07
(UTC+00:00)

Envisat - Visible Passes

Search period start: 02 October 2022 00:00
Search period end: 12 October 2022 00:00
Orbit: 764 x 765 km, 98.2° (Epoch: 01 October)

Date Brightness Start Highest point End Pass type
(mag) Time Alt. Az. Time Alt. Az. Time Alt. Az.
02 Oct 4.5 11:16:43 10° NNE 11:21:25 36° E 11:26:03 10° SSE visible
02 Oct 3.5 12:55:44 10° N 13:00:29 41° WNW 13:05:13 10° SW visible
03 Oct 5.5 10:40:29 10° NE 10:44:03 19° E 10:47:37 10° SE visible
03 Oct 2.9 12:18:34 10° NNE 12:23:40 77° WNW 12:28:44 10° SSW visible
04 Oct 3.7 11:41:38 10° NNE 11:46:39 56° E 11:51:38 10° S visible
05 Oct 4.9 11:05:01 10° NNE 11:09:27 29° E 11:13:52 10° SSE visible
05 Oct 3.2 12:43:47 10° N 12:48:42 50° WNW 12:53:34 10° SW visible
06 Oct 5.8 10:29:04 10° NE 10:32:02 15° E 10:34:59 10° ESE visible
06 Oct 3.0 12:06:41 10° NNE 12:11:49 88° ESE 12:16:54 10° SSW visible
07 Oct 4.0 11:29:50 10° NNE 11:34:44 46° E 11:39:36 10° S visible
08 Oct 5.2 10:53:21 10° NE 10:57:28 24° E 11:01:33 10° SE visible
08 Oct 3.0 12:31:51 10° N 12:36:52 60° WNW 12:41:52 10° SSW visible
09 Oct 5.9 10:17:55 10° ENE 10:19:59 12° E 10:22:03 10° ESE visible
09 Oct 3.2 11:54:49 10° NNE 11:59:56 72° ESE 12:05:00 10° S visible
10 Oct 4.4 11:18:03 10° NNE 11:22:48 37° E 11:27:29 10° SSE visible
10 Oct 3.5 12:57:07 10° N 13:01:51 39° WNW 13:06:33 10° SW visible
11 Oct 5.5 10:41:47 10° NE 10:45:28 20° E 10:49:07 10° SE visible
11 Oct 2.9 12:19:56 10° NNE 12:25:02 74° WNW 12:30:06 10° SSW visible
